Stolt Shearwater — ZCRD9 — position and weather

sailwx.info

Track history (hours):
 
Tides and Currents Weather Stations Pressure Air Temp Water Temp Dewpoint Dewpoint Depression Visibility Wind Speed Wind Dir Waves Ship Positions

Stolt Shearwater

Last reported at 2014-Oct-21 10:08 UTC. Time now 2014-Oct-22 15:24 UTC.
Position N 53°39' E 009°31'.

Length 96 m; draft 5.1 m.

Type: Ship. MMSI: 319402000.

Date/timePositionNaut miles runAvg speedWind from/ knotsBaromVisibWave heightAir tempDewpointWater temp
2014-Oct-21 10:08N 53°39' E 009°31'3 5.4
2014-Oct-21 09:34N 53°42' E 009°29'1313.3
2014-Oct-21 08:33N 53°52' E 009°15'3 3.0
2014-Oct-21 07:30N 53°53' E 009°10'0 0.1
2014-Oct-21 06:30N 53°53' E 009°10'0 0.0
2014-Oct-21 05:27N 53°53' E 009°10'0 0.0
2014-Oct-21 04:33N 53°53' E 009°10'0 0.0
2014-Oct-21 03:33N 53°53' E 009°10'0 0.0
2014-Oct-21 02:33N 53°53' E 009°10'0 0.0
2014-Oct-21 01:33N 53°53' E 009°10'0 0.1
2014-Oct-21 00:33N 53°53' E 009°10'0 0.1
2014-Oct-20 23:30N 53°53' E 009°10'0 0.0
2014-Oct-20 22:33N 53°53' E 009°10'0 0.0
2014-Oct-20 21:33N 53°53' E 009°10'0 0.0
2014-Oct-20 20:33N 53°53' E 009°10'0 0.0
2014-Oct-20 19:33N 53°53' E 009°10'0 0.3
2014-Oct-20 18:33N 53°53' E 009°09'10 9.6
2014-Oct-20 17:33N 53°50' E 008°53'9 8.6
2014-Oct-20 16:33N 53°55' E 008°41'9 8.9
2014-Oct-20 15:34N 53°59' E 008°27'1211.4
2014-Oct-20 14:33N 53°60' E 008°08'1110.8
2014-Oct-20 13:33N 54°04' E 007°51'1110.5
2014-Oct-20 12:33N 54°11' E 007°37'2 2.0
2014-Oct-20 11:33N 54°13' E 007°36'4 4.0
2014-Oct-20 10:34N 54°10' E 007°41'4 3.8
2014-Oct-20 09:33N 54°08' E 007°46'8 7.8
2014-Oct-20 08:33N 54°12' E 007°35'1211.8
2014-Oct-20 07:33N 54°20' E 007°21'9 9.1
2014-Oct-20 06:34N 54°29' E 007°23'8 8.1
2014-Oct-20 05:34N 54°36' E 007°16'7 7.0
2014-Oct-20 04:33N 54°43' E 007°21'7 7.0
2014-Oct-20 03:33N 54°49' E 007°26'1111.3
2014-Oct-20 02:33N 54°55' E 007°10'1111.2
2014-Oct-20 01:34N 55°02' E 006°54'7 7.2
2014-Oct-20 00:33N 55°09' E 006°50'7 6.9
2014-Oct-19 23:33N 55°15' E 006°55'7 6.5
2014-Oct-19 22:33N 55°21' E 006°58'7 6.9
2014-Oct-19 21:33N 55°28' E 007°01'7 6.8
2014-Oct-19 20:33N 55°34' E 007°04'6 6.4
2014-Oct-19 19:33N 55°40' E 007°08'140 8.2
2014-Oct-19 02:27N 57°48' E 008°53'78 9.7
2014-Oct-18 18:30N 58°49' E 010°24'8 8.4
2014-Oct-18 17:33N 58°55' E 010°34'10 9.6
2014-Oct-18 16:34N 59°02' E 010°46'7 7.0
2014-Oct-18 15:33N 59°05' E 010°58'10 9.7
2014-Oct-18 14:34N 59°15' E 011°01'2 0.1
2014-Oct-17 20:33N 59°14' E 010°59'3 2.6
2014-Oct-17 19:31N 59°11' E 010°57'0 0.0
2014-Oct-17 18:31N 59°11' E 010°57'0 0.0
2014-Oct-17 17:31N 59°11' E 010°57'0 0.0
2014-Oct-17 16:31N 59°11' E 010°57'0 0.0
2014-Oct-17 15:31N 59°11' E 010°57'0 0.0
2014-Oct-17 14:33N 59°11' E 010°57'4 4.0
2014-Oct-17 13:33N 59°07' E 010°58'7 6.7
2014-Oct-17 12:33N 59°01' E 010°54'7 6.8
2014-Oct-17 11:33N 58°59' E 010°41'9 9.0
2014-Oct-17 10:33N 58°53' E 010°29'13 0.3
2014-Oct-15 11:32N 58°59' E 010°07'8 1.4
2014-Oct-15 05:27N 59°06' E 010°14'9 9.7
2014-Oct-15 04:33N 58°58' E 010°14'9 1.4
2014-Oct-14 22:05N 58°50' E 010°07'2 4.7
2014-Oct-14 21:33N 58°51' E 010°11'5 4.5
2014-Oct-14 20:33N 58°54' E 010°18'4 4.0
2014-Oct-14 19:33N 58°56' E 010°25'4 3.7
2014-Oct-14 18:33N 58°58' E 010°31'4 3.5
2014-Oct-14 17:33N 58°60' E 010°36'7 6.7
2014-Oct-14 16:33N 59°02' E 010°49'7 7.3
2014-Oct-14 15:33N 59°07' E 010°58'9 8.7
2014-Oct-14 14:33N 59°16' E 011°03'2 1.7
2014-Oct-14 13:33N 59°16' E 011°06'5 0.4
2014-Oct-13 23:34N 59°13' E 010°58'2 1.6
2014-Oct-13 22:33N 59°12' E 010°57'0 0.0
2014-Oct-13 21:32N 59°12' E 010°57'0 0.0
2014-Oct-13 20:32N 59°12' E 010°57'0 0.0
2014-Oct-13 19:26N 59°12' E 010°57'0 0.0
2014-Oct-13 18:32N 59°12' E 010°57'0 0.0
2014-Oct-13 17:32N 59°12' E 010°57'0 0.0
2014-Oct-13 16:32N 59°12' E 010°57'0 0.0
2014-Oct-13 15:33N 59°12' E 010°57'2 1.7
2014-Oct-13 14:33N 59°10' E 010°57'9 8.8
2014-Oct-13 13:33N 59°01' E 010°58'6 6.1
2014-Oct-13 12:33N 59°02' E 010°46'6 6.1
2014-Oct-13 11:33N 58°57' E 010°38'6 6.1
2014-Oct-13 10:33N 58°53' E 010°30'9 7.9
2014-Oct-13 09:28N 58°46' E 010°21'9 9.6
2014-Oct-13 08:33N 58°39' E 010°11'1210.7
2014-Oct-13 07:25N 58°29' E 009°56'42610.7
2014-Oct-11 15:33N 53°42' E 000°33'10 9.9
2014-Oct-11 14:33N 53°36' E 000°20'9 8.9
2014-Oct-11 13:33N 53°34' E 000°05'1211.7
2014-Oct-11 12:33N 53°40' W 000°12'4 4.2
2014-Oct-11 11:33N 53°44' W 000°15'0 0.0
2014-Oct-11 10:25N 53°44' W 000°15'  
Track history (hours):
 
Tides and Currents Weather Stations Pressure Air Temp Water Temp Dewpoint Dewpoint Depression Visibility Wind Speed Wind Dir Waves Ship Positions

Stolt Shearwater

Last reported at 2014-Oct-21 10:08 UTC. Time now 2014-Oct-22 15:24 UTC.
Position N 53°39' E 009°31'.

Length 96 m; draft 5.1 m.

Type: Ship. MMSI: 319402000.

Date/timePositionNaut miles runAvg speedWind from/ knotsBaromVisibWave heightAir tempDewpointWater temp
2014-Oct-21 10:08N 53°39' E 009°31'3 5.4
2014-Oct-21 09:34N 53°42' E 009°29'1313.3
2014-Oct-21 08:33N 53°52' E 009°15'3 3.0
2014-Oct-21 07:30N 53°53' E 009°10'0 0.1
2014-Oct-21 06:30N 53°53' E 009°10'0 0.0
2014-Oct-21 05:27N 53°53' E 009°10'0 0.0
2014-Oct-21 04:33N 53°53' E 009°10'0 0.0
2014-Oct-21 03:33N 53°53' E 009°10'0 0.0
2014-Oct-21 02:33N 53°53' E 009°10'0 0.0
2014-Oct-21 01:33N 53°53' E 009°10'0 0.1
2014-Oct-21 00:33N 53°53' E 009°10'0 0.1
2014-Oct-20 23:30N 53°53' E 009°10'0 0.0
2014-Oct-20 22:33N 53°53' E 009°10'0 0.0
2014-Oct-20 21:33N 53°53' E 009°10'0 0.0
2014-Oct-20 20:33N 53°53' E 009°10'0 0.0
2014-Oct-20 19:33N 53°53' E 009°10'0 0.3
2014-Oct-20 18:33N 53°53' E 009°09'10 9.6
2014-Oct-20 17:33N 53°50' E 008°53'9 8.6
2014-Oct-20 16:33N 53°55' E 008°41'9 8.9
2014-Oct-20 15:34N 53°59' E 008°27'1211.4
2014-Oct-20 14:33N 53°60' E 008°08'1110.8
2014-Oct-20 13:33N 54°04' E 007°51'1110.5
2014-Oct-20 12:33N 54°11' E 007°37'2 2.0
2014-Oct-20 11:33N 54°13' E 007°36'4 4.0
2014-Oct-20 10:34N 54°10' E 007°41'4 3.8
2014-Oct-20 09:33N 54°08' E 007°46'8 7.8
2014-Oct-20 08:33N 54°12' E 007°35'1211.8
2014-Oct-20 07:33N 54°20' E 007°21'9 9.1
2014-Oct-20 06:34N 54°29' E 007°23'8 8.1
2014-Oct-20 05:34N 54°36' E 007°16'7 7.0
2014-Oct-20 04:33N 54°43' E 007°21'7 7.0
2014-Oct-20 03:33N 54°49' E 007°26'1111.3
2014-Oct-20 02:33N 54°55' E 007°10'1111.2
2014-Oct-20 01:34N 55°02' E 006°54'7 7.2
2014-Oct-20 00:33N 55°09' E 006°50'7 6.9
2014-Oct-19 23:33N 55°15' E 006°55'7 6.5
2014-Oct-19 22:33N 55°21' E 006°58'7 6.9
2014-Oct-19 21:33N 55°28' E 007°01'7 6.8
2014-Oct-19 20:33N 55°34' E 007°04'6 6.4
2014-Oct-19 19:33N 55°40' E 007°08'140 8.2
2014-Oct-19 02:27N 57°48' E 008°53'78 9.7
2014-Oct-18 18:30N 58°49' E 010°24'8 8.4
2014-Oct-18 17:33N 58°55' E 010°34'10 9.6
2014-Oct-18 16:34N 59°02' E 010°46'7 7.0
2014-Oct-18 15:33N 59°05' E 010°58'10 9.7
2014-Oct-18 14:34N 59°15' E 011°01'2 0.1
2014-Oct-17 20:33N 59°14' E 010°59'3 2.6
2014-Oct-17 19:31N 59°11' E 010°57'0 0.0
2014-Oct-17 18:31N 59°11' E 010°57'0 0.0
2014-Oct-17 17:31N 59°11' E 010°57'0 0.0
2014-Oct-17 16:31N 59°11' E 010°57'0 0.0
2014-Oct-17 15:31N 59°11' E 010°57'0 0.0
2014-Oct-17 14:33N 59°11' E 010°57'4 4.0
2014-Oct-17 13:33N 59°07' E 010°58'7 6.7
2014-Oct-17 12:33N 59°01' E 010°54'7 6.8
2014-Oct-17 11:33N 58°59' E 010°41'9 9.0
2014-Oct-17 10:33N 58°53' E 010°29'13 0.3
2014-Oct-15 11:32N 58°59' E 010°07'8 1.4
2014-Oct-15 05:27N 59°06' E 010°14'9 9.7
2014-Oct-15 04:33N 58°58' E 010°14'9 1.4
2014-Oct-14 22:05N 58°50' E 010°07'2 4.7
2014-Oct-14 21:33N 58°51' E 010°11'5 4.5
2014-Oct-14 20:33N 58°54' E 010°18'4 4.0
2014-Oct-14 19:33N 58°56' E 010°25'4 3.7
2014-Oct-14 18:33N 58°58' E 010°31'4 3.5
2014-Oct-14 17:33N 58°60' E 010°36'7 6.7
2014-Oct-14 16:33N 59°02' E 010°49'7 7.3
2014-Oct-14 15:33N 59°07' E 010°58'9 8.7
2014-Oct-14 14:33N 59°16' E 011°03'2 1.7
2014-Oct-14 13:33N 59°16' E 011°06'5 0.4
2014-Oct-13 23:34N 59°13' E 010°58'2 1.6
2014-Oct-13 22:33N 59°12' E 010°57'0 0.0
2014-Oct-13 21:32N 59°12' E 010°57'0 0.0
2014-Oct-13 20:32N 59°12' E 010°57'0 0.0
2014-Oct-13 19:26N 59°12' E 010°57'0 0.0
2014-Oct-13 18:32N 59°12' E 010°57'0 0.0
2014-Oct-13 17:32N 59°12' E 010°57'0 0.0
2014-Oct-13 16:32N 59°12' E 010°57'0 0.0
2014-Oct-13 15:33N 59°12' E 010°57'2 1.7
2014-Oct-13 14:33N 59°10' E 010°57'9 8.8
2014-Oct-13 13:33N 59°01' E 010°58'6 6.1
2014-Oct-13 12:33N 59°02' E 010°46'6 6.1
2014-Oct-13 11:33N 58°57' E 010°38'6 6.1
2014-Oct-13 10:33N 58°53' E 010°30'9 7.9
2014-Oct-13 09:28N 58°46' E 010°21'9 9.6
2014-Oct-13 08:33N 58°39' E 010°11'1210.7
2014-Oct-13 07:25N 58°29' E 009°56'42610.7
2014-Oct-11 15:33N 53°42' E 000°33'10 9.9
2014-Oct-11 14:33N 53°36' E 000°20'9 8.9
2014-Oct-11 13:33N 53°34' E 000°05'1211.7
2014-Oct-11 12:33N 53°40' W 000°12'4 4.2
2014-Oct-11 11:33N 53°44' W 000°15'0 0.0
2014-Oct-11 10:25N 53°44' W 000°15'  

Dump ship's entire track history